Location: Home
(42.5358°N, 72.7383°W)
Time: 10:02:19
(UTC-05:00)

Vanguard 2 - Pass Details

Date: 08 December 2021
Orbit: 553 x 2936 km, 32.9° (Epoch: 21 January)

Event Time Altitude Azimuth Distance (km) Brightness Sun altitude
Rises 12:03:32 0° 232° (SW) 2,711 11.0 24.5°
Reaches altitude 10° 12:06:03 10° 215° (SW) 1,843 10.7 24.5°
Maximum altitude 12:09:07 21° 165° (SSE) 1,389 10.5 24.4°
Drops below altitude 10° 12:12:43 10° 116° (ESE) 2,193 10.2 24.3°
Sets 12:16:04 0° 101° (E) 3,417 10.9 24.2°
